SPIRIT

Satellite information

Favourite Embed

Satellite Type and Status

PAYLOADIN ORBIT

Key statistics

Satellite SPIRIT at a glance.

Uptime

748

Days in orbit

Revolutions

≈ 15.5

Per day

Orbit

SSO

Sun Synchronous Orbit

Inclination

97.4

Latest

Satellite identification and parameters

Extended collection of information and parameters for SPIRIT.

Object identification

Identified? True

Debris? False

Object name: SPIRIT

International designator: 2023-185G

Object number (NORAD): 58468

Object ID (CCSDS): 58468

Country: AUSTRALIA (AUS)

Current information (Y/N): Y

RCS size: MEDIUM

Orbital parameters

Period: 92.782 minutes

Inclination: 97.3567 deg

SMA: 6788.961 km

Apoapsis: 415.551 km

Periapsis: 406.102 km

RAAN: 64.4594 deg

Eccentricy: 0.00069588

Argument of periapsis: 124.4082 deg

Mean anomaly: 235.783 deg

Mean motion: 15.52021579 rev/day

Mean motion (dot): 0.00037219 rev/day2

B* drag term: 0.00061727417 1/REarth

Two-line elements (TLE)

Creation date: Dec. 18, 2025, 2:19 a.m.

Reference frame: TEME

Reference center: EARTH

Epoch: Dec. 17, 2025, 11:17 p.m. UTC

TLE line 0: 0 SPIRIT

TLE line 1: 1 58468U 23185G 25351.97018756 .00037219 00000-0 61727-3 0 9997

TLE line 2: 2 58468 97.3567 64.4594 0006959 124.4082 235.7830 15.52021579114238

Live tracking on map

Real-time ground track for satellite SPIRIT.

In-orbit conjunctions

There are no conjunctions computed for SPIRIT, at the moment. Check back to stay up to date, as we update our databases every day.

Go to all conjunctions

Associated space launch

Note: Name of payload is provisional. First launch of an ultimately 5 reconnaissance satellites for the South Korean Defense Acquisition Program Administration (DAPA), with 1 satellite featuring an electro-optical infrared (EO/IR) telescope. The other 4 synthetic aperture radar (SAR) satellites are to be launched at a later date. They will be launched to low Earth orbit between 600 and 700 km by 2025, enabling South Korea’s military to observe the nuclear-armed neighbor’s key military facilities every two hours with 30-50 centimeters resolution imagery, according to a 2019 report produced by the Korea Institute of S&T Evaluation and Planning. The project is lead by the Korean Agency for Defense Development (ADD) and Korea Aerospace Research Institute (KARI), with input from Korea Aerospace Industries (KAI), Hanwha Systems and Thales Alenia Space. ESA's EIRSAT-1 is also onboard as a rideshare passenger. This 2U cubesat carries three experiments, including a novel gamma ray detector to study some of the most luminous explosions in the universe.

SPIRIT was lifted into orbit during the mission ‘Falcon 9 Block 5 | 425 Project Flight 1 & rideshare’, on board a Falcon 9 space rocket.

The launch took place on Dec. 1, 2023, 6:19 p.m. from Space Launch Complex 4E.

For more information about the launch, click the button.

Launch to space Falcon 9 Block 5 | 425 Project Flight 1 & rideshare
Falcon 9 Block 5 | 425 Project Flight 1 & rideshare

Agency: N/A

Status: Launch Successful

Launch date: Dec. 1, 2023, 6:19 p.m. UTC

Rocket: Falcon 9

Launch pad: Space Launch Complex 4E

Location: Vandenberg SFB, CA, USA

...

Latest news about this satellite

News about space launch
Launch Roundup: Soyuz resupplies the ISS; SpaceX launches more Starlink satellites

This week, SpaceX continued its incredible launch cadence with two more launches of Falcon 9, a Soyuz 2.1a resupplied the International Space Station (ISS), and three missions launched consecutively out of China.


Newsletter sign-up

Weekly statistics, charts and insights to help you stay on top of the space industry.